Tracking 25195 objects as of 20-Jan-2022
HD Live streaming from Space Station
objects crossing your sky now

ZHEDA PIXING 3A

Track ZHEDA PIXING 3A now!
10-day predictions


NORAD ID: 45795
Int'l Code: 2020-039B
Perigee: 486.4 km
Apogee: 505.8 km
Inclination: 97.4 °
Period: 94.4 minutes
Semi major axis: 6867 km
RCS: Unknown
Launch date: June 17, 2020
Source: People's Republic of China (PRC)
Launch site: Jiuquan Satellite Launch Center, China (JSC)
aabbcc
Your satellite tracking list
Your tracking list is empty




NASA's NSSDC Master Catalog

Two Line Element Set (TLE):
1 45795U 20039B   22019.90884345  .00004460  00000-0  17792-3 0  9992
2 45795  97.3777 141.5257 0014189  26.4710  90.9678 15.25606132 88590
Source of the keplerian elements: AFSPC